| time (UTC) | temp C | wind direction | speed KPH | gust KPH | rain 1hr cm | rain 24hr cm | rain mn cm | humidity % | barometer mb |
| 20260506005517 | 25 | 97 | 4.8 | 9.7 | 0.00 | 0.30 | 0.03 | 23 | 1006.9 |
| 20260506005016 | 24 | 57 | 1.6 | 6.4 | 0.00 | 0.30 | 0.03 | 24 | 1007.0 |
| 20260506004517 | 24 | 28 | 3.2 | 9.7 | 0.00 | 0.30 | 0.03 | 24 | 1007.1 |
| 20260506004014 | 24 | 191 | 3.2 | 9.7 | 0.00 | 0.30 | 0.03 | 24 | 1007.2 |
| 20260506003515 | 24 | 360 | 3.2 | 9.7 | 0.00 | 0.30 | 0.03 | 24 | 1007.2 |
| 20260506003017 | 24 | 40 | 1.6 | 9.7 | 0.00 | 0.30 | 0.03 | 24 | 1007.2 |
| 20260506002518 | 23 | 83 | 1.6 | 12.9 | 0.00 | 0.30 | 0.03 | 25 | 1007.3 |
| 20260506002016 | 23 | 55 | 6.4 | 12.9 | 0.00 | 0.30 | 0.03 | 25 | 1007.3 |
| 20260506001514 | 24 | 74 | 4.8 | 11.3 | 0.00 | 0.30 | 0.03 | 24 | 1007.4 |
| 20260506001014 | 23 | 47 | 1.6 | 9.7 | 0.00 | 0.30 | 0.03 | 25 | 1007.5 |
| 20260506000519 | 23 | 106 | 3.2 | 9.7 | 0.00 | 0.30 | 0.03 | 25 | 1007.4 |
| 20260506000018 | 23 | 128 | 3.2 | 8.0 | 0.00 | 0.30 | 0.03 | 25 | 1007.5 |
| 20260505235513 | 23 | 40 | 1.6 | 9.7 | 0.00 | 0.36 | 0.03 | 26 | 1007.5 |
| 20260505235013 | 23 | 86 | 4.8 | 9.7 | 0.00 | 0.36 | 0.03 | 26 | 1007.6 |
| 20260505234531 | 23 | 41 | 4.8 | 11.3 | 0.00 | 0.36 | 0.03 | 26 | 1007.7 |
| 20260505234011 | 22 | 79 | 3.2 | 14.5 | 0.00 | 0.36 | 0.03 | 28 | 1007.7 |
| 20260505233511 | 22 | 69 | 3.2 | 16.1 | 0.00 | 0.36 | 0.03 | 28 | 1007.8 |
| 20260505233012 | 21 | 196 | 4.8 | 16.1 | 0.00 | 0.36 | 0.03 | 28 | 1007.8 |
| 20260505232513 | 22 | 200 | 4.8 | 9.7 | 0.00 | 0.36 | 0.03 | 27 | 1008.0 |
| 20260505232010 | 23 | 96 | 3.2 | 9.7 | 0.00 | 0.36 | 0.03 | 26 | 1008.0 |
| 20260505231511 | 22 | 351 | 1.6 | 12.9 | 0.00 | 0.36 | 0.03 | 28 | 1008.1 |
| 20260505231010 | 22 | 115 | 3.2 | 12.9 | 0.00 | 0.36 | 0.03 | 27 | 1008.1 |
| 20260505230510 | 22 | 94 | 4.8 | 11.3 | 0.00 | 0.36 | 0.03 | 27 | 1008.2 |
| 20260505230011 | 22 | 210 | 4.8 | 9.7 | 0.00 | 0.36 | 0.03 | 27 | 1008.2 |
| 20260505225513 | 23 | 163 | 0.0 | 9.7 | 0.00 | 0.36 | 0.03 | 26 | 1008.3 |
| 20260505225010 | 23 | 5 | 6.4 | 12.9 | 0.00 | 0.36 | 0.03 | 26 | 1008.4 |
| 20260505224509 | 24 | 92 | 3.2 | 11.3 | 0.00 | 0.36 | 0.03 | 26 | 1008.3 |
| 20260505224008 | 23 | 90 | 1.6 | 8.0 | 0.00 | 0.36 | 0.03 | 27 | 1008.3 |
| 20260505223509 | 22 | 37 | 1.6 | 8.0 | 0.00 | 0.36 | 0.03 | 27 | 1008.3 |
| 20260505223013 | 22 | 28 | 1.6 | 11.3 | 0.00 | 0.36 | 0.03 | 28 | 1008.6 |
| 20260505222512 | 23 | 118 | 8.0 | 12.9 | 0.00 | 0.36 | 0.03 | 26 | 1008.6 |
| 20260505222007 | 23 | 59 | 1.6 | 12.9 | 0.00 | 0.36 | 0.03 | 27 | 1008.8 |
| 20260505221508 | 24 | 76 | 3.2 | 8.0 | 0.00 | 0.36 | 0.03 | 25 | 1008.8 |
| 20260505221007 | 24 | 5 | 1.6 | 12.9 | 0.00 | 0.36 | 0.03 | 26 | 1008.9 |
| 20260505220505 | 24 | 9 | 4.8 | 12.9 | 0.00 | 0.36 | 0.03 | 27 | 1009.0 |
| 20260505220004 | 23 | 350 | 3.2 | 14.5 | 0.00 | 0.36 | 0.03 | 28 | 1009.1 |
| 20260505215503 | 23 | 38 | 3.2 | 14.5 | 0.00 | 0.36 | 0.03 | 28 | 1009.2 |
| 20260505215002 | 22 | 360 | 3.2 | 6.4 | 0.00 | 0.36 | 0.03 | 31 | 1009.2 |
| 20260505214602 | 22 | 132 | 1.6 | 12.9 | 0.00 | 0.36 | 0.03 | 31 | 1009.3 |
| 20260505214002 | 22 | 128 | 4.8 | 12.9 | 0.00 | 0.36 | 0.03 | 30 | 1009.4 |
| 20260505213503 | 20 | 71 | 1.6 | 14.5 | 0.00 | 0.36 | 0.03 | 34 | 1009.4 |
| 20260505213001 | 19 | 165 | 6.4 | 14.5 | 0.00 | 0.36 | 0.03 | 37 | 1009.4 |
| 20260505212603 | 20 | 162 | 9.7 | 14.5 | 0.00 | 0.36 | 0.03 | 34 | 1009.4 |
| 20260505212003 | 19 | 202 | 6.4 | 14.5 | 0.00 | 0.36 | 0.03 | 35 | 1009.4 |
| 20260505211601 | 20 | 193 | 1.6 | 11.3 | 0.00 | 0.36 | 0.03 | 35 | 1009.5 |
| 20260505211100 | 18 | 150 | 3.2 | 14.5 | 0.00 | 0.36 | 0.03 | 37 | 1009.5 |
| 20260505210559 | 18 | 168 | 8.0 | 17.7 | 0.00 | 0.36 | 0.03 | 36 | 1009.6 |
| 20260505210100 | 20 | 157 | 9.7 | 17.7 | 0.00 | 0.36 | 0.03 | 34 | 1009.6 |
| 20260505205600 | 20 | 5 | 1.6 | 16.1 | 0.00 | 0.36 | 0.03 | 34 | 1009.7 |
| 20260505205100 | 22 | 167 | 3.2 | 12.9 | 0.00 | 0.36 | 0.03 | 31 | 1009.8 |
| 20260505204601 | 21 | 115 | 3.2 | 14.5 | 0.00 | 0.36 | 0.03 | 32 | 1009.8 |
| 20260505204056 | 21 | 49 | 6.4 | 14.5 | 0.00 | 0.36 | 0.03 | 34 | 1009.8 |
| 20260505203555 | 20 | 27 | 4.8 | 11.3 | 0.00 | 0.36 | 0.03 | 35 | 1009.8 |
| 20260505203101 | 20 | 51 | 4.8 | 16.1 | 0.00 | 0.36 | 0.03 | 37 | 1009.9 |
| 20260505202554 | 20 | 80 | 6.4 | 16.1 | 0.00 | 0.36 | 0.03 | 37 | 1010.0 |
| 20260505202054 | 18 | 81 | 3.2 | 6.4 | 0.00 | 0.36 | 0.03 | 40 | 1010.0 |
| 20260505201554 | 18 | 36 | 3.2 | 11.3 | 0.00 | 0.36 | 0.03 | 41 | 1010.0 |
| 20260505201054 | 18 | 182 | 3.2 | 11.3 | 0.00 | 0.36 | 0.03 | 40 | 1010.0 |
| 20260505200554 | 20 | 187 | 4.8 | 9.7 | 0.00 | 0.36 | 0.03 | 37 | 1010.0 |
| 20260505200053 | 20 | 5 | 6.4 | 9.7 | 0.00 | 0.36 | 0.03 | 37 | 1010.1 |
| 20260505195551 | 19 | 86 | 3.2 | 16.1 | 0.00 | 0.36 | 0.03 | 40 | 1010.1 |
| 20260505195050 | 18 | 60 | 4.8 | 16.1 | 0.00 | 0.36 | 0.03 | 42 | 1010.2 |
| 20260505194605 | 18 | 82 | 6.4 | 12.9 | 0.00 | 0.36 | 0.03 | 43 | 1010.3 |
| 20260505194049 | 18 | 101 | 4.8 | 12.9 | 0.00 | 0.36 | 0.03 | 44 | 1010.3 |
| 20260505193548 | 18 | 88 | 6.4 | 11.3 | 0.00 | 0.36 | 0.03 | 44 | 1010.3 |
| 20260505193048 | 17 | 355 | 1.6 | 14.5 | 0.00 | 0.36 | 0.03 | 47 | 1010.4 |
| 20260505192547 | 17 | 65 | 1.6 | 14.5 | 0.00 | 0.36 | 0.03 | 48 | 1010.3 |
| 20260505192047 | 17 | 98 | 4.8 | 11.3 | 0.00 | 0.36 | 0.03 | 48 | 1010.5 |
| 20260505191556 | 16 | 171 | 4.8 | 8.0 | 0.00 | 0.36 | 0.03 | 48 | 1010.4 |
| 20260505191048 | 16 | 82 | 0.0 | 9.7 | 0.00 | 0.36 | 0.03 | 49 | 1010.3 |
| 20260505190548 | 16 | 190 | 1.6 | 9.7 | 0.00 | 0.36 | 0.03 | 48 | 1010.3 |
| 20260505190046 | 16 | 144 | 3.2 | 11.3 | 0.00 | 0.36 | 0.03 | 47 | 1010.4 |
| 20260505185545 | 16 | 247 | 3.2 | 8.0 | 0.00 | 0.36 | 0.03 | 48 | 1010.3 |
| 20260505185045 | 16 | 236 | 3.2 | 8.0 | 0.00 | 0.36 | 0.03 | 47 | 1010.3 |
| 20260505184545 | 16 | 355 | 3.2 | 8.0 | 0.00 | 0.36 | 0.03 | 48 | 1010.3 |
| 20260505184045 | 16 | 324 | 1.6 | 6.4 | 0.00 | 0.36 | 0.03 | 49 | 1010.3 |
| 20260505183546 | 17 | 258 | 1.6 | 8.0 | 0.00 | 0.36 | 0.03 | 46 | 1010.3 |
| 20260505183043 | 18 | 150 | 1.6 | 14.5 | 0.00 | 0.36 | 0.03 | 44 | 1010.3 |
| 20260505182543 | 17 | 350 | 3.2 | 14.5 | 0.00 | 0.36 | 0.03 | 49 | 1010.3 |
| 20260505182044 | 16 | 338 | 0.0 | 4.8 | 0.00 | 0.36 | 0.03 | 54 | 1010.3 |
| 20260505181540 | 14 | 15 | 0.0 | 8.0 | 0.00 | 0.36 | 0.03 | 56 | 1010.3 |
| 20260505181040 | 14 | 194 | 1.6 | 12.9 | 0.00 | 0.36 | 0.03 | 56 | 1010.4 |
| 20260505180539 | 14 | 333 | 4.8 | 12.9 | 0.00 | 0.36 | 0.03 | 57 | 1010.3 |
| 20260505180046 | 14 | 219 | 4.8 | 11.3 | 0.00 | 0.36 | 0.03 | 58 | 1010.2 |
| 20260505175536 | 13 | 229 | 3.2 | 9.7 | 0.00 | 0.36 | 0.03 | 59 | 1010.2 |
| 20260505175035 | 13 | 248 | 4.8 | 11.3 | 0.00 | 0.36 | 0.03 | 60 | 1010.2 |
| 20260505174534 | 13 | 205 | 3.2 | 8.0 | 0.00 | 0.36 | 0.03 | 61 | 1010.1 |
| 20260505174034 | 13 | 236 | 3.2 | 9.7 | 0.00 | 0.36 | 0.03 | 62 | 1010.1 |
| 20260505173534 | 13 | 266 | 4.8 | 9.7 | 0.00 | 0.36 | 0.03 | 62 | 1010.2 |
| 20260505173032 | 12 | 229 | 4.8 | 9.7 | 0.00 | 0.36 | 0.03 | 62 | 1010.2 |
| 20260505172533 | 13 | 252 | 3.2 | 11.3 | 0.00 | 0.36 | 0.03 | 62 | 1010.1 |
| 20260505172032 | 13 | 251 | 3.2 | 12.9 | 0.00 | 0.36 | 0.03 | 62 | 1010.0 |
| 20260505171531 | 12 | 200 | 3.2 | 12.9 | 0.00 | 0.36 | 0.03 | 63 | 1010.0 |
| 20260505171031 | 12 | 211 | 8.0 | 12.9 | 0.00 | 0.36 | 0.03 | 62 | 1010.0 |
| 20260505170530 | 12 | 234 | 3.2 | 14.5 | 0.00 | 0.36 | 0.03 | 63 | 1010.0 |
| 20260505170029 | 12 | 227 | 6.4 | 14.5 | 0.00 | 0.36 | 0.03 | 63 | 1009.9 |
| 20260505165528 | 12 | 198 | 6.4 | 17.7 | 0.00 | 0.36 | 0.03 | 64 | 1009.9 |
| 20260505165028 | 12 | 241 | 9.7 | 17.7 | 0.00 | 0.36 | 0.03 | 64 | 1009.9 |
| 20260505164528 | 12 | 282 | 9.7 | 19.3 | 0.00 | 0.36 | 0.03 | 64 | 1009.9 |
| 20260505164027 | 12 | 244 | 11.3 | 19.3 | 0.00 | 0.36 | 0.03 | 64 | 1009.8 |
| 20260505163525 | 12 | 232 | 9.7 | 17.7 | 0.00 | 0.36 | 0.03 | 64 | 1009.8 |
| 20260505163025 | 12 | 270 | 8.0 | 14.5 | 0.00 | 0.36 | 0.03 | 64 | 1009.8 |
| 20260505162525 | 12 | 207 | 6.4 | 16.1 | 0.00 | 0.36 | 0.03 | 65 | 1009.6 |
| 20260505162024 | 12 | 248 | 4.8 | 16.1 | 0.00 | 0.36 | 0.03 | 65 | 1009.6 |
| 20260505161526 | 12 | 237 | 8.0 | 17.7 | 0.00 | 0.36 | 0.03 | 65 | 1009.6 |
| 20260505161023 | 12 | 245 | 6.4 | 16.1 | 0.00 | 0.36 | 0.03 | 66 | 1009.6 |
| 20260505160524 | 11 | 244 | 8.0 | 16.1 | 0.00 | 0.36 | 0.03 | 65 | 1009.6 |
| 20260505153015 | 10 | 257 | 6.4 | 11.3 | 0.00 | 0.36 | 0.03 | 71 | 1009.2 |
| 20260505152513 | 10 | 267 | 4.8 | 11.3 | 0.00 | 0.36 | 0.03 | 72 | 1009.1 |
| 20260505152015 | 10 | 254 | 4.8 | 8.0 | 0.00 | 0.36 | 0.03 | 71 | 1009.2 |
| 20260505151514 | 10 | 233 | 4.8 | 12.9 | 0.00 | 0.36 | 0.03 | 71 | 1009.2 |
| 20260505151011 | 10 | 222 | 4.8 | 12.9 | 0.00 | 0.36 | 0.03 | 71 | 1009.2 |
| 20260505150512 | 10 | 251 | 3.2 | 8.0 | 0.00 | 0.36 | 0.03 | 72 | 1009.1 |
| 20260505140504 | 9 | 211 | 4.8 | 11.3 | 0.00 | 0.36 | 0.03 | 73 | 1008.4 |
| 20260505130104 | 8 | 197 | 6.4 | 17.7 | 0.03 | 0.36 | 0.03 | 72 | 1007.5 |
| 20260505124559 | 8 | 236 | 9.7 | 17.7 | 0.03 | 0.36 | 0.03 | 72 | 1007.3 |
| 20260505124057 | 8 | 237 | 6.4 | 17.7 | 0.03 | 0.36 | 0.03 | 72 | 1007.2 |
| 20260505123558 | 8 | 234 | 8.0 | 17.7 | 0.03 | 0.36 | 0.03 | 72 | 1007.2 |
| 20260505123101 | 8 | 200 | 11.3 | 16.1 | 0.03 | 0.36 | 0.03 | 73 | 1007.1 |
| 20260505122554 | 8 | 208 | 6.4 | 14.5 | 0.00 | 0.33 | 0.00 | 73 | 1007.1 |
| 20260505122054 | 8 | 199 | 8.0 | 14.5 | 0.00 | 0.33 | 0.00 | 73 | 1007.1 |
| 20260505121623 | 8 | 191 | 8.0 | 20.9 | 0.00 | 0.33 | 0.00 | 72 | 1007.0 |
| 20260505121054 | 8 | 209 | 12.9 | 20.9 | 0.00 | 0.33 | 0.00 | 72 | 1007.0 |
| 20260505120553 | 8 | 266 | 11.3 | 19.3 | 0.00 | 0.33 | 0.00 | 71 | 1006.9 |
| 20260505120053 | 8 | 227 | 8.0 | 17.7 | 0.00 | 0.33 | 0.00 | 71 | 1006.9 |
| 20260505115552 | 8 | 244 | 11.3 | 22.5 | 0.00 | 0.33 | 0.00 | 71 | 1006.9 |
| 20260505115052 | 8 | 234 | 11.3 | 25.7 | 0.00 | 0.33 | 0.00 | 70 | 1006.8 |
| 20260505114553 | 9 | 248 | 11.3 | 25.7 | 0.00 | 0.33 | 0.00 | 70 | 1006.8 |
| 20260505114052 | 8 | 242 | 12.9 | 25.7 | 0.00 | 0.33 | 0.00 | 70 | 1006.8 |
| 20260505113551 | 9 | 252 | 11.3 | 24.1 | 0.00 | 0.33 | 0.00 | 70 | 1007.0 |
| 20260505113056 | 9 | 237 | 12.9 | 24.1 | 0.00 | 0.33 | 0.00 | 70 | 1007.0 |
| 20260505112550 | 9 | 252 | 8.0 | 25.7 | 0.00 | 0.33 | 0.00 | 70 | 1006.9 |
| 20260505112051 | 9 | 355 | 12.9 | 25.7 | 0.00 | 0.33 | 0.00 | 70 | 1006.8 |
| 20260505111553 | 8 | 246 | 11.3 | 17.7 | 0.00 | 0.33 | 0.00 | 70 | 1006.9 |
| 20260505111055 | 8 | 355 | 9.7 | 17.7 | 0.00 | 0.33 | 0.00 | 70 | 1006.9 |
| 20260505110554 | 8 | 259 | 9.7 | 19.3 | 0.00 | 0.33 | 0.00 | 71 | 1006.9 |
| 20260505102047 | 8 | 249 | 11.3 | 25.7 | 0.00 | 0.33 | 0.00 | 70 | 1006.7 |
| 20260505101546 | 8 | 241 | 9.7 | 22.5 | 0.00 | 0.33 | 0.00 | 70 | 1006.6 |
| 20260505101047 | 8 | 231 | 14.5 | 22.5 | 0.00 | 0.33 | 0.00 | 71 | 1006.7 |
| 20260505100549 | 8 | 240 | 9.7 | 22.5 | 0.00 | 0.33 | 0.00 | 70 | 1006.7 |
| 20260505100115 | 8 | 258 | 14.5 | 24.1 | 0.00 | 0.33 | 0.00 | 70 | 1006.8 |
| 20260505095549 | 8 | 236 | 11.3 | 24.1 | 0.00 | 0.33 | 0.00 | 70 | 1006.8 |
| 20260505095048 | 8 | 238 | 9.7 | 17.7 | 0.00 | 0.33 | 0.00 | 70 | 1006.9 |
| 20260505094545 | 8 | 281 | 9.7 | 24.1 | 0.00 | 0.33 | 0.00 | 70 | 1006.8 |
| 20260505094044 | 8 | 238 | 11.3 | 25.7 | 0.00 | 0.33 | 0.00 | 70 | 1006.8 |
| 20260505093544 | 9 | 280 | 14.5 | 25.7 | 0.00 | 0.33 | 0.00 | 70 | 1006.8 |
| 20260505093044 | 9 | 235 | 14.5 | 19.3 | 0.00 | 0.33 | 0.00 | 69 | 1006.9 |
| 20260505092550 | 9 | 222 | 12.9 | 25.7 | 0.00 | 0.33 | 0.00 | 69 | 1006.9 |
| 20260505092044 | 9 | 229 | 12.9 | 25.7 | 0.00 | 0.33 | 0.00 | 69 | 1007.0 |
| 20260505091606 | 9 | 183 | 16.1 | 25.7 | 0.00 | 0.33 | 0.00 | 69 | 1006.9 |
| 20260505091043 | 9 | 267 | 14.5 | 30.6 | 0.00 | 0.33 | 0.00 | 69 | 1007.0 |
| 20260505090543 | 9 | 245 | 16.1 | 30.6 | 0.00 | 0.33 | 0.00 | 70 | 1006.9 |
| 20260505090056 | 9 | 237 | 12.9 | 22.5 | 0.00 | 0.33 | 0.00 | 70 | 1006.9 |
| 20260505085542 | 10 | 250 | 11.3 | 33.8 | 0.00 | 0.33 | 0.00 | 69 | 1007.0 |
| 20260505085044 | 10 | 229 | 9.7 | 33.8 | 0.00 | 0.33 | 0.00 | 69 | 1007.1 |
| 20260505084545 | 10 | 198 | 14.5 | 30.6 | 0.00 | 0.33 | 0.00 | 65 | 1007.0 |
| 20260505084044 | 10 | 264 | 16.1 | 32.2 | 0.00 | 0.33 | 0.00 | 70 | 1007.0 |
| 20260505083542 | 10 | 254 | 14.5 | 38.6 | 0.00 | 0.33 | 0.00 | 70 | 1006.8 |
| 20260505083048 | 10 | 239 | 17.7 | 32.2 | 0.00 | 0.33 | 0.00 | 70 | 1006.6 |
| 20260505082539 | 10 | 244 | 20.9 | 30.6 | 0.00 | 0.33 | 0.00 | 72 | 1006.6 |
| 20260505082039 | 10 | 243 | 16.1 | 25.7 | 0.00 | 0.33 | 0.00 | 73 | 1006.6 |
| 20260505081543 | 9 | 223 | 16.1 | 24.1 | 0.00 | 0.33 | 0.00 | 73 | 1006.4 |
| 20260505081042 | 9 | 205 | 12.9 | 24.1 | 0.00 | 0.33 | 0.00 | 74 | 1006.6 |
| 20260505080541 | 9 | 252 | 12.9 | 25.7 | 0.00 | 0.33 | 0.00 | 73 | 1006.8 |
| 20260505080048 | 9 | 219 | 12.9 | 29.0 | 0.00 | 0.33 | 0.00 | 74 | 1006.9 |
| 20260505075537 | 9 | 251 | 14.5 | 29.0 | 0.00 | 0.33 | 0.00 | 74 | 1007.0 |
| 20260505075038 | 9 | 244 | 14.5 | 22.5 | 0.00 | 0.33 | 0.00 | 75 | 1006.7 |
| 20260505074540 | 9 | 203 | 14.5 | 25.7 | 0.00 | 0.33 | 0.00 | 75 | 1006.7 |
| 20260505074039 | 9 | 182 | 9.7 | 32.2 | 0.00 | 0.33 | 0.00 | 75 | 1006.9 |
| 20260505073535 | 9 | 232 | 19.3 | 32.2 | 0.00 | 0.33 | 0.00 | 75 | 1007.0 |
| 20260505073043 | 9 | 254 | 16.1 | 32.2 | 0.00 | 0.33 | 0.00 | 76 | 1007.2 |
| 20260505072532 | 9 | 233 | 16.1 | 32.2 | 0.03 | 0.33 | 0.00 | 76 | 1006.9 |
| 20260505072031 | 9 | 254 | 14.5 | 30.6 | 0.03 | 0.33 | 0.00 | 76 | 1006.7 |
| 20260505071539 | 9 | 238 | 17.7 | 29.0 | 0.05 | 0.33 | 0.00 | 75 | 1006.7 |
| 20260505071030 | 9 | 253 | 19.3 | 29.0 | 0.05 | 0.33 | 0.00 | 75 | 1006.6 |
| 20260505070528 | 9 | 218 | 16.1 | 29.0 | 0.08 | 0.33 | 0.00 | 76 | 1006.5 |
| 20260505070029 | 9 | 246 | 16.1 | 29.0 | 0.08 | 0.33 | 0.00 | 76 | 1006.2 |
| 20260505065526 | 9 | 237 | 14.5 | 27.4 | 0.08 | 0.33 | 0.33 | 76 | 1006.4 |
| 20260505065025 | 10 | 233 | 11.3 | 25.7 | 0.08 | 0.33 | 0.33 | 76 | 1006.6 |
| 20260505064525 | 9 | 189 | 12.9 | 25.7 | 0.08 | 0.33 | 0.33 | 76 | 1006.7 |
| 20260505064024 | 9 | 221 | 9.7 | 16.1 | 0.08 | 0.33 | 0.33 | 76 | 1007.0 |
| 20260505063524 | 9 | 202 | 9.7 | 16.1 | 0.08 | 0.33 | 0.33 | 76 | 1007.0 |
| 20260505063033 | 9 | 202 | 9.7 | 19.3 | 0.08 | 0.33 | 0.33 | 76 | 1007.2 |
| 20260505062524 | 9 | 246 | 11.3 | 25.7 | 0.05 | 0.30 | 0.30 | 74 | 1007.1 |
| 20260505062030 | 10 | 211 | 9.7 | 25.7 | 0.05 | 0.30 | 0.30 | 73 | 1007.1 |
| 20260505061527 | 10 | 235 | 12.9 | 33.8 | 0.03 | 0.28 | 0.28 | 72 | 1006.7 |
| 20260505061024 | 10 | 254 | 17.7 | 33.8 | 0.03 | 0.28 | 0.28 | 70 | 1006.6 |
| 20260505060518 | 10 | 223 | 20.9 | 33.8 | 0.00 | 0.25 | 0.25 | 68 | 1006.3 |
| 20260505060018 | 10 | 195 | 19.3 | 33.8 | 0.00 | 0.25 | 0.25 | 67 | 1006.2 |
| 20260505055518 | 10 | 266 | 19.3 | 35.4 | 0.00 | 0.25 | 0.25 | 67 | 1006.0 |
| 20260505055020 | 10 | 196 | 19.3 | 35.4 | 0.00 | 0.25 | 0.25 | 68 | 1005.9 |
| 20260505054516 | 10 | 244 | 14.5 | 30.6 | 0.00 | 0.25 | 0.25 | 68 | 1005.8 |
| 20260505054017 | 10 | 246 | 14.5 | 30.6 | 0.00 | 0.25 | 0.25 | 67 | 1005.9 |
| 20260505053516 | 10 | 232 | 17.7 | 29.0 | 0.00 | 0.25 | 0.25 | 66 | 1006.0 |
| 20260505053016 | 11 | 271 | 14.5 | 25.7 | 0.00 | 0.25 | 0.25 | 65 | 1005.9 |
| 20260505052515 | 11 | 211 | 16.1 | 27.4 | 0.00 | 0.25 | 0.25 | 65 | 1005.9 |
| 20260505052015 | 11 | 252 | 16.1 | 27.4 | 0.00 | 0.25 | 0.25 | 65 | 1005.9 |
| 20260505051531 | 11 | 246 | 16.1 | 27.4 | 0.00 | 0.25 | 0.25 | 65 | 1005.8 |
| 20260505051016 | 11 | 230 | 16.1 | 30.6 | 0.00 | 0.25 | 0.25 | 65 | 1005.8 |
| 20260505050520 | 10 | 184 | 16.1 | 32.2 | 0.00 | 0.25 | 0.25 | 65 | 1005.9 |
| 20260505041516 | 10 | 232 | 16.1 | 35.4 | 0.00 | 0.25 | 0.25 | 68 | 1005.4 |
| 20260505041013 | 11 | 193 | 19.3 | 35.4 | 0.00 | 0.25 | 0.25 | 68 | 1005.4 |
| 20260505040513 | 10 | 232 | 17.7 | 37.0 | 0.00 | 0.25 | 0.25 | 68 | 1005.4 |
| 20260505040015 | 10 | 226 | 16.1 | 32.2 | 0.00 | 0.25 | 0.25 | 70 | 1005.4 |
| 20260505035512 | 10 | 217 | 14.5 | 33.8 | 0.00 | 0.25 | 0.25 | 72 | 1005.4 |
| 20260505035012 | 10 | 242 | 19.3 | 37.0 | 0.00 | 0.25 | 0.25 | 73 | 1005.3 |
| 20260505034512 | 10 | 236 | 20.9 | 37.0 | 0.00 | 0.25 | 0.25 | 73 | 1005.3 |
| 20260505034011 | 10 | 252 | 17.7 | 30.6 | 0.00 | 0.25 | 0.25 | 73 | 1005.2 |
| 20260505033510 | 10 | 232 | 16.1 | 32.2 | 0.00 | 0.25 | 0.25 | 73 | 1005.2 |
| 20260505033010 | 10 | 234 | 16.1 | 41.8 | 0.00 | 0.25 | 0.25 | 71 | 1005.2 |
| 20260505032513 | 10 | 259 | 17.7 | 41.8 | 0.00 | 0.25 | 0.25 | 70 | 1005.2 |
| 20260505032008 | 10 | 171 | 19.3 | 30.6 | 0.03 | 0.25 | 0.25 | 70 | 1005.0 |
| 20260505031522 | 10 | 207 | 19.3 | 27.4 | 0.03 | 0.25 | 0.25 | 71 | 1004.9 |
| 20260505031009 | 10 | 224 | 17.7 | 25.7 | 0.03 | 0.25 | 0.25 | 71 | 1004.7 |
| 20260505030508 | 10 | 212 | 17.7 | 27.4 | 0.03 | 0.25 | 0.25 | 71 | 1004.6 |
| 20260505030008 | 10 | 175 | 17.7 | 33.8 | 0.03 | 0.25 | 0.25 | 71 | 1004.7 |
| 20260505025514 | 10 | 260 | 20.9 | 35.4 | 0.03 | 0.25 | 0.25 | 71 | 1004.6 |
| 20260505025007 | 10 | 223 | 22.5 | 37.0 | 0.03 | 0.25 | 0.25 | 73 | 1004.5 |
| 20260505024506 | 10 | 202 | 24.1 | 35.4 | 0.03 | 0.25 | 0.25 | 74 | 1004.6 |
| 20260505024006 | 10 | 219 | 17.7 | 33.8 | 0.03 | 0.25 | 0.25 | 75 | 1004.7 |
| 20260505023505 | 10 | 267 | 20.9 | 33.8 | 0.03 | 0.25 | 0.25 | 76 | 1004.9 |
| 20260505023004 | 10 | 269 | 16.1 | 30.6 | 0.03 | 0.25 | 0.25 | 74 | 1005.2 |
| 20260505022504 | 11 | 261 | 11.3 | 29.0 | 0.03 | 0.25 | 0.25 | 73 | 1005.5 |
| 20260505022003 | 11 | 258 | 16.1 | 32.2 | 0.00 | 0.23 | 0.23 | 72 | 1005.5 |
| 20260505021504 | 11 | 247 | 14.5 | 27.4 | 0.00 | 0.23 | 0.23 | 71 | 1005.5 |
| 20260505021002 | 11 | 224 | 14.5 | 30.6 | 0.00 | 0.23 | 0.23 | 71 | 1005.4 |
| 20260505020503 | 11 | 238 | 14.5 | 30.6 | 0.00 | 0.23 | 0.23 | 72 | 1005.1 |
| 20260505020003 | 11 | 192 | 14.5 | 32.2 | 0.00 | 0.23 | 0.23 | 73 | 1004.9 |
| 20260505015503 | 11 | 221 | 16.1 | 35.4 | 0.03 | 0.23 | 0.23 | 74 | 1004.9 |
| 20260505015002 | 11 | 221 | 16.1 | 41.8 | 0.05 | 0.23 | 0.23 | 75 | 1004.8 |
| 20260505014504 | 10 | 246 | 19.3 | 41.8 | 0.08 | 0.23 | 0.23 | 76 | 1004.7 |
| 20260505014103 | 11 | 244 | 20.9 | 37.0 | 0.10 | 0.23 | 0.23 | 76 | 1004.6 |
| 20260505014002 | 11 | 234 | 20.9 | 37.0 | 0.10 | 0.23 | 0.23 | 76 | 1004.5 |
| 20260505013600 | 11 | 231 | 16.1 | 35.4 | 0.13 | 0.23 | 0.23 | 75 | 1004.5 |
| 20260505013100 | 11 | 225 | 20.9 | 30.6 | 0.15 | 0.23 | 0.23 | 74 | 1004.4 |
| 20260505012600 | 11 | 260 | 14.5 | 25.7 | 0.15 | 0.23 | 0.23 | 69 | 1004.3 |
| 20260505012059 | 12 | 282 | 3.2 | 17.7 | 0.15 | 0.23 | 0.23 | 67 | 1004.1 |
| 20260505011559 | 11 | 204 | 12.9 | 17.7 | 0.15 | 0.23 | 0.23 | 67 | 1003.7 |
| 20260505011058 | 11 | 173 | 11.3 | 22.5 | 0.15 | 0.23 | 0.23 | 69 | 1003.6 |
| 20260505010601 | 11 | 175 | 14.5 | 30.6 | 0.15 | 0.23 | 0.23 | 72 | 1003.4 |
| 20260505010113 | 11 | 182 | 19.3 | 37.0 | 0.18 | 0.23 | 0.23 | 75 | 1002.9 |